User: anonymous   Login
Location: Smithers
(54.7670°N, 127.1670°W)
Time: 04:13:25
(UTC-08:00)
Language:

ERBS - Orbit

View from above orbital plane
View from above orbital plane
View from above satellite
View from above satellite

Ground track
Ground track

The orbit data is extracted from the following two-line orbital elements,

1 15354U 84108B   17324.92878610 +.00002960 +00000-0 +70656-4 0  9992
2 15354 057.0063 183.0323 0015388 060.8517 299.4077 15.44824391822149
Epoch (UTC): 20 November 2017 22:17:27
Eccentricity: 0.0015388
inclination: 57.0063°
perigee height: 421 km
apogee height: 442 km
right ascension of ascending node: 183.0323°
argument of perigee: 60.8517°
revolutions per day: 15.44824391
mean anomaly at epoch: 299.4077°
orbit number at epoch: 82214

The dashed part of the orbit path shows where the satellite is in the earth's shadow,  

DLR